Regional Weather Roundup
Issued by NWS

Home | Current Version | Previous Version | Graphics & Text | Print | Product List | Glossary On
Versions: 1 2 3 4 5 6 7 8 9 10 11 12 13 14 15 16 17 18 19 20 21 22 23 24 25 26 27 28 29 30 31 32 33 34 35 36 37 38 39 40 41 42 43 44 45 46 47 48 49
000
ASUS45 KSLC 291810
RWRUT

UTAH REGIONAL WEATHER ROUNDUP
NATIONAL WEATHER SERVICE SALT LAKE CITY UT
1200 PM MDT MON JUN 29 2015

UTZ001>011-023>025-291900-

NORTHERN UTAH

CITY           SKY/WX    TMP DP  RH WIND       PRES   REMARKS
BRIGHAM CITY   SUNNY     93  41  16 SE6       30.09F
HILL AFB       SUNNY     91  49  23 E12       30.14R
LOGAN          SUNNY     90  51  26 MISG      30.11F
OGDEN          SUNNY     94  42  16 SE7       30.10S HX  90
PROVO AIRPORT  MOSUNNY   90  54  29 W5        30.12F
SALT LAKE CITY MOSUNNY   95  48  20 SE9       30.07S HX  91
VERNAL         SUNNY     89  43  20 S7        30.20S
WENDOVER       SUNNY     93  45  18 E7        30.08S
HEBER CITY     SUNNY     86  45  23 NW3       30.22S
WEST JORDAN    SUNNY     93  46  20 S13       30.12S

$$

UTZ012>022-026-027-291900-

SOUTHERN/CENTRAL UTAH

CITY           SKY/WX    TMP DP  RH WIND       PRES   REMARKS
BLANDING       SUNNY     83  44  25 SE3       30.31F
BRYCE CANYON   SUNNY     84  40  21 CALM      30.38F
CEDAR CITY     SUNNY     91  40  16 W7        30.20F
DELTA          SUNNY     94  37  13 W10       30.12S HX  90
HANKSVILLE     SUNNY     95  41  15 CALM      30.12S HX  91
MILFORD        SUNNY     94  44  17 S16       30.14S HX  90
MOAB/CYNLANDS  SUNNY     92  43  18 CALM      30.10F
PRICE          SUNNY     91  40  16 SW7       30.23F
ST GEORGE      CLEAR     97  48  19 W6        30.02S HX  93
KANAB          SUNNY     91  50  24 SW3       30.21F

$$

REGIONAL REPORTS     COLORADO/ARIZONA

CITY           SKY/WX    TMP DP  RH WIND       PRES   REMARKS
CRAIG, CO      SUNNY     86  44  23 NE5       30.29S
GRAND JUNCTION SUNNY     90  43  19 SE6       30.15F
RIFLE          SUNNY     87  43  21 W5        30.21F
MONTROSE       SUNNY     90  46  21 N8        30.24F
CORTEZ         SUNNY     88  43  20 SW8       30.24F
PAGE, AZ       SUNNY     93  47  20 VRB5      30.11F
GRAND CANYON   MOSUNNY   85  45  24 CALM      30.32S
KINGMAN        SUNNY     96  48  19 VRB5      30.07S HX  92
FLAGSTAFF      MOSUNNY   82  45  27 VRB5      30.35S

$$

REGIONAL REPORTS    NEVADA/IDAHO/WYOMING

CITY           SKY/WX    TMP DP  RH WIND       PRES   REMARKS
LAS VEGAS, NV  MOSUNNY  102  46  15 S6        29.91F HX  98
ELY            SUNNY     90  36  14 N6        30.25F
ELKO           SUNNY     91  46  21 S6        30.16F
POCATELLO, ID  SUNNY     94  56  27 NE5       30.11F HX  92
BURLEY         SUNNY     88  54  31 VRB5      30.07F
EVANSTON, WY   SUNNY     82  43  25 E10G16    30.36F
ROCK SPRINGS   SUNNY     83  44  25 NE9       30.35S
KEMMERER       SUNNY     82  41  23 SE12G18   30.40S

$$



USA.gov is the U.S. government's official web portal to all federal, state and local government web resources and services.